[[{"header":{"parameterUnit":"m.s-1","parameterCategory":1,"la1":30.2991,"la2":30.254,"lo1":-89.0895,"lo2":-89.0444,"dy":0.0017,"dx":0.0017,"nx":28,"ny":28,"refTime":"2025-09-05T09:00:00:Z","depth":0,"parameterNumber":2,"parameterNumberName":"U-component_of_WINDS"},"data":[0,0,0,0,0,0,0,0,0,0,0,0,0,0,0,0,0,0,0,0,0,0,0,0,0,0,0,0,0,0,0,0,0,0,0,0,0,0,0,0,0,0,0,0,0,0,0,0,0,0,0,0,0,0,0,0,0,0,-0.7701,-0.7702,0,-0.7732,-0.7732,-0.7733,-0.7689,-0.7687,-0.7686,-0.7684,-0.7717,-0.7719,-0.7722,0,0,0,0,0,0,0,0,0,0,0,0,0,-0.7606,-0.7608,-0.7701,-0.7702,-0.7702,-0.7732,-0.7732,-0.7733,-0.7689,-0.7687,-0.7685,-0.7683,-0.7716,-0.7719,-0.7722,0,0,0,0,0,0,0,0,0,0,0,0,0,-0.7643,-0.7609,-0.7701,-0.7684,-0.7683,-0.7732,-0.7733,-0.7733,-0.7689,-0.7687,-0.7685,-0.7683,-0.7715,-0.7719,-0.7722,-0.7791,0,0,-0.7733,-0.7734,0,0,0,0,0,0,0,0,-0.7641,-0.7647,-0.7686,-0.7685,-0.7684,-0.7704,-0.7711,-0.7752,-0.769,-0.7687,-0.7684,-0.7681,-0.7715,-0.7718,-0.7729,-0.7792,-0.7794,-0.7733,-0.7735,-0.7737,-0.7738,0,0,0,0,0,0,0,-0.7639,-0.7645,-0.7714,-0.7687,-0.7685,-0.7675,-0.7678,-0.7719,-0.7714,-0.7687,-0.7684,-0.7688,-0.7714,-0.7726,-0.773,-0.7794,-0.7733,-0.7736,-0.7738,-0.774,-0.7916,-0.7918,0,0,0,0,0,0,-0.7638,-0.7643,-0.7713,-0.7714,-0.7656,-0.7679,-0.7681,-0.77,-0.7713,-0.7713,-0.769,-0.7686,-0.7721,-0.7726,-0.7731,-0.7812,-0.7737,-0.774,-0.7742,-0.7913,-0.7916,-0.7919,0,0,0,0,0,0,-0.7636,-0.7645,-0.7711,-0.7678,-0.7686,-0.7683,-0.7704,-0.7702,-0.7714,-0.7715,-0.7714,-0.7703,-0.7719,-0.7726,-0.7776,-0.7813,-0.7742,-0.7745,-0.791,-0.7914,-0.7918,-0.7976,0,0,0,0,0,0,-0.7634,-0.7644,-0.767,-0.7679,-0.7688,-0.7756,-0.7706,-0.7704,-0.772,-0.7715,-0.7727,-0.7727,-0.7718,-0.7771,-0.778,-0.7816,-0.7748,-0.7907,-0.7912,-0.7917,-0.7971,-0.7982,-0.7991,0,0,0,0,0,-0.763,-0.7685,-0.7671,-0.768,-0.772,-0.7758,-0.7764,-0.7751,-0.7723,-0.7749,-0.775,-0.7727,-0.7807,-0.7777,-0.7786,-0.7824,-0.7905,-0.7911,-0.7916,-0.7967,-0.798,-0.7991,0,0,0,0,0,0,-0.7681,-0.7686,-0.7671,-0.773,-0.7744,-0.7751,-0.7784,-0.7765,-0.7788,-0.7782,-0.7766,-0.7769,-0.7824,-0.7829,-0.7795,-0.7892,-0.7851,-0.7859,-0.7887,-0.7899,-0.7909,-0.7907,-0.775,0,0,0,0,0,-0.7699,-0.773,-0.7732,-0.7785,-0.7792,-0.7787,-0.7803,-0.7793,-0.7807,-0.7812,-0.7817,-0.7832,-0.786,-0.788,-0.7906,-0.7971,-0.7974,-0.8002,-0.8012,-0.802,-0.8028,-0.8064,-0.8077,-0.7938,-0.7938,-0.7938,0,0,-0.7737,-0.7743,-0.7764,-0.7795,-0.7805,-0.7837,-0.7792,-0.7828,-0.7853,-0.7818,-0.7866,-0.787,-0.7886,-0.7944,-0.797,-0.795,-0.8066,-0.8027,-0.8034,-0.8037,-0.8071,-0.8084,-0.8096,-0.7942,-0.7941,-0.7941,0,0,-0.7823,-0.783,-0.7875,-0.7885,-0.79,-0.7896,-0.7907,-0.7916,-0.7918,-0.7966,-0.794,-0.7969,-0.8018,-0.8031,-0.8044,-0.8134,-0.8114,-0.8143,-0.8195,-0.823,-0.8241,-0.8251,-0.8285,-0.8297,-0.815,-0.815,-0.815,0,-0.7868,-0.7916,-0.79,-0.7939,-0.7954,-0.7923,-0.7969,-0.798,-0.8003,-0.8014,-0.7991,-0.8052,-0.8061,-0.8122,-0.8144,-0.8155,-0.8168,-0.8142,-0.8241,-0.825,-0.8259,-0.8291,-0.8304,-0.8154,-0.8153,-0.8153,-0.8153,0,-0.7971,-0.8005,-0.8039,-0.8062,-0.8081,-0.8123,-0.8114,-0.8135,-0.8122,-0.8121,-0.8171,-0.8179,-0.8207,-0.8221,-0.8209,-0.8281,-0.8268,-0.8243,-0.8203,-0.8276,-0.8306,-0.8318,-0.8159,-0.8158,-0.8157,-0.8156,0,0,-0.8091,-0.8104,-0.8118,-0.8128,-0.8142,-0.8168,-0.8208,-0.8235,-0.8254,-0.8271,-0.8305,-0.8348,-0.8325,-0.8339,-0.8328,-0.8359,-0.8432,-0.8331,-0.8331,-0.835,-0.8513,-0.8533,-0.8548,-0.8418,-0.842,-0.8422,-0.8513,0,-0.8178,-0.8248,-0.8235,-0.8303,-0.8335,-0.8306,-0.8341,-0.8354,-0.8354,-0.8381,-0.838,-0.8411,-0.8378,-0.8387,-0.8416,-0.8417,-0.8465,-0.841,-0.8451,-0.8453,-0.845,-0.8563,-0.8584,-0.8669,-0.8524,-0.8526,-0.8527,0,-0.8288,-0.8309,-0.8381,-0.839,-0.8403,-0.8435,-0.8459,-0.8485,-0.8499,-0.8497,-0.8513,-0.8497,-0.8538,-0.8496,-0.8553,-0.8516,-0.8532,-0.8535,-0.8538,-0.8543,-0.8496,-0.8572,-0.8696,-0.8709,-0.8545,-0.8544,-0.8543,0,-0.837,-0.8416,-0.8465,-0.8474,-0.8487,-0.851,-0.8516,-0.8528,-0.8545,-0.8566,-0.8577,-0.8603,-0.8617,-0.8638,-0.8629,-0.8599,-0.8689,-0.8645,-0.8689,-0.8689,-0.8711,-0.871,-0.884,-0.8718,-0.8718,-0.8718,-0.8717,0,-0.8469,-0.8515,-0.8502,-0.8533,-0.8583,-0.8567,-0.8618,-0.862,-0.8631,-0.8662,-0.8638,-0.8668,-0.8653,-0.8682,-0.8676,-0.8725,-0.8731,-0.8731,-0.8729,-0.8734,-0.8735,-0.8746,-0.874,-0.8721,-0.872,-0.872,-0.8719,0,-0.857,-0.8563,-0.8615,-0.8622,-0.8625,-0.8662,-0.8668,-0.8697,-0.8694,-0.8734,-0.8742,-0.8739,-0.8771,-0.8764,-0.88,-0.8795,-0.8858,-0.8847,-0.8853,-0.8851,-0.8896,-0.8893,-0.904,-0.9059,-0.8923,-0.8924,-0.8925,0,-0.8634,-0.8669,-0.8679,-0.8698,-0.8706,-0.8737,-0.8754,-0.8741,-0.876,-0.8779,-0.8806,-0.8836,-0.886,-0.8913,-0.8914,-0.8942,-0.8933,-0.8983,-0.8937,-0.8942,-0.8936,-0.8935,-0.8939,-0.8992,-0.8994,-0.8995,-0.8996,0,-0.875,-0.8745,-0.8771,-0.8796,-0.8818,-0.8837,-0.8853,-0.887,-0.8858,-0.8881,-0.8914,-0.8932,-0.8969,-0.9,-0.9026,-0.9032,-0.9013,-0.901,-0.9022,-0.9029,-0.9031,-0.9032,-0.888,-0.9007,-0.9006,-0.9006,-0.9005,-0.9004,-0.8836,-0.8865,-0.8878,-0.8908,-0.8919,-0.8935,-0.8963,-0.8964,-0.8991,-0.9019,-0.9009,-0.9048,-0.9061,-0.9093,-0.9103,-0.9133,-0.9115,-0.9132,-0.9136,-0.9141,-0.9148,-0.9025,-0.9138,-0.9137,-0.9137,-0.9137,-0.9136,0,-0.8952,-0.8958,-0.8986,-0.901,-0.9034,-0.9012,-0.903,-0.9051,-0.9085,-0.9099,-0.9123,-0.9162,-0.9191,-0.9195,-0.9223,-0.9247,-0.9239,-0.9255,-0.9254,-0.9256,-0.9161,-0.9149,-0.9261,-0.9261,-0.9261,-0.9261,-0.9261,-0.9261,-0.9015,-0.9064,-0.9061,-0.9115,-0.9121,-0.9158,-0.917,-0.9186,-0.9197,-0.9241,-0.9266,-0.9267,-0.9277,-0.9306,-0.9333,-0.9333,-0.9346,-0.9366,-0.9363,-0.9275,-0.9263,-0.9251,-0.9239,-0.9368,-0.9368,-0.9455,-0.9456,-0.9457]},{"header":{"parameterUnit":"m.s-1","parameterCategory":1,"la1":30.2991,"la2":30.254,"lo1":-89.0895,"lo2":-89.0444,"dy":0.0017,"dx":0.0017,"nx":28,"ny":28,"refTime":"2025-09-05T09:00:00:Z","depth":0,"parameterNumber":3,"parameterNumberName":"V-component_of_WINDS"},"data":[0,0,0,0,0,0,0,0,0,0,0,0,0,0,0,0,0,0,0,0,0,0,0,0,0,0,0,0,0,0,0,0,0,0,0,0,0,0,0,0,0,0,0,0,0,0,0,0,0,0,0,0,0,0,0,0,0,0,-1.3873,-1.3873,0,-1.3869,-1.3869,-1.3868,-1.3855,-1.3855,-1.3854,-1.3854,-1.3849,-1.3849,-1.3849,0,0,0,0,0,0,0,0,0,0,0,0,0,-1.3869,-1.387,-1.3873,-1.3873,-1.3873,-1.3869,-1.3869,-1.3868,-1.3855,-1.3855,-1.3854,-1.3854,-1.3848,-1.3849,-1.3849,0,0,0,0,0,0,0,0,0,0,0,0,0,-1.3869,-1.387,-1.3873,-1.3866,-1.3865,-1.3869,-1.3869,-1.3868,-1.3855,-1.3855,-1.3854,-1.3854,-1.3848,-1.3849,-1.3849,-1.3859,0,0,-1.3849,-1.3849,0,0,0,0,0,0,0,0,-1.3869,-1.3869,-1.3867,-1.3866,-1.3865,-1.3862,-1.3865,-1.3865,-1.3855,-1.3859,-1.3854,-1.3854,-1.3853,-1.3853,-1.3853,-1.3858,-1.3858,-1.3849,-1.3849,-1.385,-1.385,0,0,0,0,0,0,0,-1.3869,-1.3869,-1.3871,-1.3867,-1.3866,-1.3863,-1.3862,-1.3865,-1.3859,-1.3858,-1.3858,-1.3857,-1.3853,-1.3853,-1.3853,-1.3858,-1.3849,-1.385,-1.385,-1.385,-1.3872,-1.3872,0,0,0,0,0,0,-1.387,-1.3869,-1.3871,-1.3871,-1.3866,-1.3863,-1.3862,-1.3863,-1.3858,-1.3857,-1.3858,-1.3857,-1.3853,-1.3853,-1.3853,-1.3864,-1.385,-1.385,-1.385,-1.3871,-1.3872,-1.3873,0,0,0,0,0,0,-1.387,-1.387,-1.3872,-1.387,-1.387,-1.3863,-1.3865,-1.3864,-1.3864,-1.3858,-1.3856,-1.3859,-1.3853,-1.3852,-1.3857,-1.3864,-1.385,-1.385,-1.3871,-1.3872,-1.3872,-1.3887,0,0,0,0,0,0,-1.387,-1.387,-1.3874,-1.387,-1.387,-1.3877,-1.3865,-1.3864,-1.3864,-1.3863,-1.3859,-1.3858,-1.3852,-1.3857,-1.3858,-1.3864,-1.385,-1.387,-1.3871,-1.3872,-1.3886,-1.3888,-1.389,0,0,0,0,0,-1.387,-1.3878,-1.3874,-1.3875,-1.3874,-1.3877,-1.3877,-1.3871,-1.3865,-1.3869,-1.3865,-1.3858,-1.3863,-1.3858,-1.3858,-1.3864,-1.387,-1.3871,-1.3872,-1.3885,-1.3888,-1.389,0,0,0,0,0,0,-1.3882,-1.3877,-1.3873,-1.388,-1.3879,-1.3875,-1.3879,-1.3874,-1.3874,-1.3873,-1.3865,-1.3864,-1.387,-1.3868,-1.3862,-1.3874,-1.3865,-1.3867,-1.3875,-1.3878,-1.388,-1.388,-1.385,0,0,0,0,0,-1.3886,-1.3889,-1.3884,-1.3891,-1.3891,-1.3885,-1.3886,-1.3882,-1.388,-1.3879,-1.3876,-1.3874,-1.3876,-1.3877,-1.3878,-1.3886,-1.3885,-1.389,-1.3893,-1.3894,-1.3895,-1.39,-1.3902,-1.3876,-1.3876,-1.3876,0,0,-1.3894,-1.3891,-1.3893,-1.3894,-1.3892,-1.3895,-1.3885,-1.3888,-1.389,-1.388,-1.3884,-1.3882,-1.388,-1.3887,-1.389,-1.3885,-1.3902,-1.3896,-1.3897,-1.3897,-1.3901,-1.3904,-1.3906,-1.3877,-1.3877,-1.3877,0,0,-1.3909,-1.3907,-1.3913,-1.3912,-1.3911,-1.3907,-1.3908,-1.3905,-1.3903,-1.3908,-1.39,-1.3902,-1.3905,-1.3904,-1.3904,-1.392,-1.3913,-1.392,-1.3931,-1.3935,-1.3937,-1.3939,-1.3945,-1.3947,-1.3921,-1.3921,-1.3921,0,-1.3918,-1.3922,-1.3917,-1.3921,-1.3921,-1.3913,-1.3918,-1.3918,-1.3916,-1.3917,-1.3912,-1.3915,-1.3913,-1.392,-1.3924,-1.3924,-1.3925,-1.392,-1.3938,-1.3939,-1.3941,-1.3946,-1.3948,-1.3922,-1.3922,-1.3922,-1.3922,0,-1.3934,-1.3937,-1.3942,-1.3942,-1.3943,-1.3948,-1.3943,-1.3944,-1.394,-1.3937,-1.3942,-1.394,-1.394,-1.3942,-1.3937,-1.3948,-1.3945,-1.3939,-1.393,-1.3944,-1.3949,-1.3951,-1.3923,-1.3923,-1.3923,-1.3922,0,0,-1.3956,-1.3953,-1.3955,-1.3955,-1.3953,-1.3955,-1.396,-1.3961,-1.3963,-1.3963,-1.3966,-1.3969,-1.3964,-1.3964,-1.3959,-1.3963,-1.3976,-1.3957,-1.3957,-1.396,-1.3988,-1.3993,-1.3995,-1.3972,-1.3973,-1.3973,-1.3988,0,-1.397,-1.3979,-1.3974,-1.3983,-1.3986,-1.3978,-1.3982,-1.3982,-1.3979,-1.3981,-1.3978,-1.3981,-1.3973,-1.3973,-1.3977,-1.3974,-1.3982,-1.3973,-1.3976,-1.3976,-1.3976,-1.3998,-1.4002,-1.4017,-1.399,-1.3991,-1.3991,0,-1.3988,-1.3989,-1.3998,-1.3997,-1.3998,-1.4002,-1.4003,-1.4005,-1.4004,-1.4002,-1.4002,-1.3997,-1.4002,-1.3993,-1.3999,-1.3994,-1.3995,-1.3993,-1.3994,-1.3993,-1.3984,-1.3998,-1.4021,-1.4023,-1.3994,-1.3994,-1.3993,0,-1.4003,-1.4007,-1.4013,-1.4013,-1.4011,-1.4014,-1.4014,-1.4013,-1.4014,-1.4015,-1.4015,-1.4016,-1.4017,-1.4018,-1.4013,-1.4008,-1.402,-1.4011,-1.4018,-1.4018,-1.4021,-1.4021,-1.4045,-1.4022,-1.4022,-1.4022,-1.4022,0,-1.4019,-1.4025,-1.402,-1.4024,-1.403,-1.4025,-1.4032,-1.403,-1.403,-1.4033,-1.4026,-1.4029,-1.4023,-1.4026,-1.4022,-1.4028,-1.4028,-1.4026,-1.4025,-1.4027,-1.4027,-1.4027,-1.4026,-1.4023,-1.4022,-1.4022,-1.4022,0,-1.4037,-1.4034,-1.404,-1.4038,-1.4038,-1.4043,-1.4041,-1.4044,-1.4042,-1.4046,-1.4047,-1.4043,-1.4046,-1.4041,-1.4043,-1.4041,-1.4049,-1.4046,-1.4049,-1.4048,-1.4056,-1.4055,-1.408,-1.4083,-1.4059,-1.4059,-1.406,0,-1.4047,-1.4052,-1.4051,-1.4053,-1.4053,-1.4056,-1.4057,-1.4053,-1.4054,-1.4054,-1.4058,-1.406,-1.4062,-1.4067,-1.4064,-1.4065,-1.4063,-1.4072,-1.4063,-1.4064,-1.4063,-1.4062,-1.4063,-1.4073,-1.4073,-1.4074,-1.4074,0,-1.4066,-1.4064,-1.4067,-1.4069,-1.4071,-1.4073,-1.4074,-1.4076,-1.4071,-1.4073,-1.4076,-1.4078,-1.408,-1.4083,-1.4084,-1.4083,-1.4077,-1.4077,-1.4078,-1.408,-1.4081,-1.408,-1.4054,-1.4076,-1.4076,-1.4076,-1.4075,-1.4075,-1.408,-1.4084,-1.4084,-1.4087,-1.4088,-1.4089,-1.4092,-1.4091,-1.4093,-1.4095,-1.4093,-1.4097,-1.4096,-1.4097,-1.4097,-1.41,-1.4096,-1.4099,-1.4099,-1.41,-1.4101,-1.4081,-1.41,-1.41,-1.41,-1.41,-1.41,0,-1.4098,-1.4098,-1.4101,-1.4103,-1.4106,-1.4102,-1.4103,-1.4105,-1.4109,-1.4109,-1.4111,-1.4115,-1.4118,-1.4116,-1.4118,-1.4121,-1.4118,-1.4121,-1.4121,-1.4121,-1.4104,-1.4103,-1.4123,-1.4123,-1.4123,-1.4123,-1.4123,-1.4123,-1.4108,-1.4114,-1.4113,-1.412,-1.412,-1.4124,-1.4125,-1.4126,-1.4127,-1.4132,-1.4134,-1.4133,-1.4132,-1.4135,-1.4137,-1.4136,-1.4137,-1.4141,-1.4139,-1.4124,-1.4122,-1.412,-1.4118,-1.4141,-1.4141,-1.4155,-1.4156,-1.4156]}]]